Location: Liscomb Game Sanctuary
(45.1633°N, 62.5575°W)
Time: 19:15:33
(UTC-03:00)

Resurs 01 Rocket - Pass Details

Date: 22 February 2018
Orbit: 635 x 644 km, 98.1° (Epoch: 18 June)

Event Time Altitude Azimuth Distance (km) Brightness Sun altitude
Exits shadow 19:28:38 39° 105° (ESE) 965 2.0 -18.5°
Maximum altitude 19:29:35 45° 70° (ENE) 874 1.9 -18.6°
Drops below altitude 10° 19:33:48 10° 359° (N) 2,037 4.3 -19.4°
Sets 19:36:05 0° 353° (N) 2,952 5.2 -19.8°
